Monticello, KY

8:59 PM EDT on September 19, 2019 (GMT -0400)
Wayne County

Weather History for KEKQ - August, 2019

Change the Weather History Date:

Sunday, August 25, 2019

  Actual Average Record
Temperature  
Mean Temperature 72 °F -  
Max Temperature 81 °F 85 °F 95 °F (2007)
Min Temperature 62 °F 62 °F 50 °F (2015)
Cooling Degree Days 6    
Growing Degree Days 22 (Base 50)    
Moisture  
Dew Point 69 °F    
Average Humidity 87    
Maximum Humidity 100    
Minimum Humidity 72    
Precipitation  
Precipitation 0.00 in - - ()
Sea Level Pressure  
Sea Level Pressure 30.09 in    
Wind  
Wind Speed 6 mph ()    
Max Wind Speed 10 mph    
Max Gust Speed -    
Visibility 9.9 miles    
Events Rain    
Averages and records for this station are not official NWS values.
T = Trace of Precipitation, MM = Missing Value Source: Averaged Metar Reports

Daily Weather History Graph

Daily Weather History Graph

Search for Another Location

Airport or City:

Astronomy

Aug. 25, 2019 Rise Set
Actual Time 6:04 AM CDT 7:17 PM CDT
Civil Twilight 5:37 AM CDT 7:44 PM CDT
Nautical Twilight 5:05 AM CDT 8:16 PM CDT
Astronomical Twilight 4:32 AM CDT 8:50 PM CDT
Moon 12:43 AM CDT (8/25) 3:32 PM CDT (8/25)
Length of Visible Light 14h 07m
Length of Day
13h 13m
Waning Crescent, 29% of the Moon is Illuminated
Aug 25
Waning Crescent
Aug 30
New
Sep 5
First Quarter
Sep 13
Full
Sep 21
Last Quarter

Hourly Weather History & Observations

Time (CDT) Temp. Heat Index Dew Point Humidity Pressure Visibility Wind Dir Wind Speed Gust Speed Precip Events Conditions
12:56 AM 64.9 °F - 62.1 °F 90% 30.14 in 10.0 mi NW 5.8 mph - N/A   Clear
2:56 AM 64.9 °F - 62.1 °F 90% 30.11 in 10.0 mi West 8.1 mph - N/A   Mostly Cloudy
3:56 AM 64.0 °F - 62.1 °F 93% 30.10 in 10.0 mi West 6.9 mph - N/A   Scattered Clouds
4:56 AM 64.0 °F - 62.1 °F 93% - 10.0 mi Calm Calm - N/A   Partly Cloudy
5:56 AM 62.1 °F - 62.1 °F 100% 30.12 in 10.0 mi NNE 9.2 mph - N/A   Clear
6:56 AM 64.0 °F - 63.0 °F 96% 30.14 in 10.0 mi WNW 6.9 mph - N/A   Scattered Clouds
7:56 AM 66.9 °F - 64.9 °F 93% 30.14 in 10.0 mi NW 9.2 mph - N/A   Overcast
8:56 AM 73.0 °F - 68.0 °F 84% 30.13 in 10.0 mi Variable 6.9 mph - N/A   Mostly Cloudy
9:56 AM 71.1 °F - 69.1 °F 93% 30.14 in 7.0 mi Variable 3.5 mph - 0.00 in Rain Light Rain
10:56 AM 73.0 °F - 71.1 °F 93% 30.13 in 10.0 mi Variable 3.5 mph - N/A   Overcast
11:56 AM 75.9 °F - 72.0 °F 87% 30.12 in 10.0 mi Variable 4.6 mph - N/A   Overcast
12:31 PM 78.8 °F - 73.4 °F 83% 30.07 in 10.0 mi Variable 6.9 mph - N/A   Overcast
12:56 PM 78.1 °F - 73.9 °F 87% 30.11 in 10.0 mi ESE 4.6 mph - N/A   Overcast
1:54 PM 80.6 °F 84.6 °F 71.6 °F 74% 30.06 in 10.0 mi Variable 6.9 mph - N/A   Mostly Cloudy
1:56 PM 80.1 °F 84.2 °F 73.0 °F 79% 30.09 in 10.0 mi East 8.1 mph - N/A   Mostly Cloudy
2:31 PM 78.8 °F - 71.6 °F 78% 30.04 in 10.0 mi North - - N/A   Overcast
2:56 PM 79.0 °F - 72.0 °F 79% 30.06 in 10.0 mi ESE 10.4 mph - N/A   Overcast
3:07 PM 80.6 °F 84.6 °F 71.6 °F 74% 30.03 in 10.0 mi SE 8.1 mph - N/A   Mostly Cloudy
3:56 PM 81.0 °F 84.9 °F 71.1 °F 72% 30.05 in 10.0 mi Variable 6.9 mph - N/A   Partly Cloudy
4:56 PM 78.1 °F - 71.1 °F 79% 30.06 in 10.0 mi East 5.8 mph - N/A   Partly Cloudy
5:56 PM 77.0 °F - 70.0 °F 79% 30.06 in 10.0 mi East 4.6 mph - N/A   Clear
6:56 PM 75.0 °F - 70.0 °F 84% 30.06 in 10.0 mi ENE 8.1 mph - N/A   Clear
7:56 PM 73.0 °F - 70.0 °F 90% 30.07 in 10.0 mi NE 8.1 mph - N/A   Partly Cloudy
8:56 PM 73.0 °F - 70.0 °F 90% 30.08 in 10.0 mi NE 9.2 mph - N/A   Mostly Cloudy
9:56 PM 73.0 °F - 70.0 °F 90% 30.09 in 10.0 mi Variable 6.9 mph - N/A   Overcast
10:56 PM 72.0 °F - 70.0 °F 93% 30.08 in 9.0 mi East 8.1 mph - N/A   Overcast
11:56 PM 72.0 °F - 70.0 °F 93% 30.07 in 10.0 mi NE 8.1 mph - N/A Rain Light Rain